North Conway, NH

3:33 PM EDT on September 22, 2019 (GMT -0400)
North Conway

Weather History for KCWN - August, 2019

Change the Weather History Date:

Thursday, August 22, 2019

  Actual Average (KIZG) Record (KIZG)
Temperature  
Mean Temperature 68 °F -  
Max Temperature 77 °F 77 °F 89 °F (2003)
Min Temperature 58 °F 50 °F 35 °F (2007)
Cooling Degree Days 2    
Growing Degree Days 18 (Base 50)    
Moisture  
Dew Point 47 °F    
Average Humidity 51    
Maximum Humidity 82    
Minimum Humidity 27    
Precipitation  
Precipitation 0.04 in - - ()
Sea Level Pressure  
Sea Level Pressure 29.61 in    
Wind  
Wind Speed 10 mph (SSW)    
Max Wind Speed 21 mph    
Max Gust Speed 40 mph    
Visibility 10 miles    
Events Rain , Thunderstorm    
Averages and records for this station are not official NWS values.
T = Trace of Precipitation, MM = Missing Value Source: NWS Daily Summary

Daily Weather History Graph

Daily Weather History Graph

Search for Another Location

Airport or City:

Astronomy

Aug. 22, 2019 Rise Set
Actual Time 5:56 AM EDT 7:38 PM EDT
Civil Twilight 5:25 AM EDT 8:08 PM EDT
Nautical Twilight 4:48 AM EDT 8:45 PM EDT
Astronomical Twilight 4:08 AM EDT 9:25 PM EDT
Moon 11:12 PM EDT 12:42 PM EDT
Length of Visible Light 14h 43m
Length of Day
13h 41m
Waning Gibbous, 60% of the Moon is Illuminated
Aug 22
Waning Gibbous
Aug 23
Last Quarter
Aug 30
New
Sep 5
First Quarter
Sep 14
Full

Hourly Weather History & Observations

Time (EDT) Temp. Dew Point Humidity Pressure Visibility Wind Dir Wind Speed Gust Speed Precip Events Conditions
12:58 AM 66.7 °F 43.7 °F 43% 29.68 in 10.0 mi NW 16.1 mph - N/A   Partly Cloudy
1:58 AM 63.1 °F 48.7 °F 59% 29.70 in 10.0 mi East 4.6 mph - N/A   Partly Cloudy
2:08 AM 62.6 °F 50.0 °F 63% 29.70 in 10.0 mi South 4.6 mph - N/A   Mostly Cloudy
2:28 AM 60.8 °F 53.6 °F 77% 29.71 in 10.0 mi South 10.4 mph - N/A   Mostly Cloudy
2:58 AM 60.8 °F 54.9 °F 81% 29.70 in 10.0 mi SSE 6.9 mph - N/A   Mostly Cloudy
3:33 AM 60.8 °F 53.6 °F 77% 29.68 in 10.0 mi SSW 5.8 mph - N/A   Scattered Clouds
3:58 AM 61.3 °F 53.8 °F 76% 29.66 in 10.0 mi South 15.0 mph 19.6 mph N/A   Clear
4:58 AM 59.9 °F 52.7 °F 77% 29.71 in 10.0 mi SSW 8.1 mph - N/A   Clear
5:58 AM 59.4 °F 51.4 °F 75% 29.66 in 10.0 mi North 9.2 mph - N/A   Clear
6:58 AM 58.6 °F 46.9 °F 65% 29.63 in 10.0 mi NW 3.5 mph - N/A   Clear
7:58 AM 58.6 °F 47.5 °F 66% 29.66 in 10.0 mi NNW 9.2 mph - N/A   Clear
8:58 AM 59.2 °F 48.2 °F 67% 29.64 in 10.0 mi NNW 6.9 mph - N/A   Clear
9:58 AM 60.4 °F 53.1 °F 77% 29.63 in 10.0 mi SE 5.8 mph - N/A   Clear
10:58 AM 61.7 °F 56.1 °F 82% 29.63 in 10.0 mi SE 4.6 mph - N/A   Scattered Clouds
11:03 AM 60.8 °F 55.4 °F 82% 29.63 in 10.0 mi Calm Calm - N/A   Mostly Cloudy
11:58 AM 66.6 °F 57.6 °F 73% 29.62 in 10.0 mi ESE 4.6 mph - N/A   Clear
12:58 PM 70.3 °F 56.5 °F 61% 29.59 in 10.0 mi SE 13.8 mph - N/A   Clear
1:58 PM 75.0 °F 48.2 °F 39% 29.55 in 10.0 mi SE 13.8 mph 25.3 mph N/A   Clear
2:58 PM 75.6 °F 49.8 °F 40% 29.55 in 10.0 mi SSE 13.8 mph 25.3 mph N/A   Mostly Cloudy
2:59 PM 77.0 °F 50.0 °F 39% 29.53 in 10.0 mi SE 18.4 mph 25.3 mph N/A Thunderstorm Thunderstorm
3:13 PM 75.2 °F 48.2 °F 38% 29.55 in 10.0 mi SE 12.7 mph 18.4 mph N/A   Mostly Cloudy
3:20 PM 73.4 °F 48.2 °F 41% 29.55 in 10.0 mi ESE 15.0 mph 19.6 mph N/A Rain Light Rain
3:33 PM 71.6 °F 48.2 °F 43% 29.55 in 10.0 mi South 12.7 mph - N/A Rain Light Rain Showers
3:58 PM 71.6 °F 47.7 °F 43% 29.55 in 10.0 mi South 10.4 mph - N/A Rain Light Rain Showers
4:26 PM 75.2 °F 44.6 °F 34% 29.52 in 10.0 mi SSE 15.0 mph 20.7 mph N/A   Mostly Cloudy
4:58 PM 74.3 °F 45.5 °F 36% 29.52 in 10.0 mi SSE 9.2 mph - N/A Rain Light Rain Showers
5:58 PM 72.7 °F 40.1 °F 31% 29.55 in 10.0 mi West 5.8 mph 17.3 mph 0.01 in Rain Light Rain Showers
5:59 PM 73.4 °F 41.0 °F 31% 29.53 in 10.0 mi West 3.5 mph - N/A   Mostly Cloudy
6:58 PM 71.2 °F 45.0 °F 39% 29.58 in 10.0 mi NNW 9.2 mph - N/A   Mostly Cloudy
7:01 PM 69.8 °F 46.4 °F 43% 29.58 in 10.0 mi NW 6.9 mph - N/A Rain Light Rain
7:09 PM 69.8 °F 42.8 °F 38% 29.58 in 10.0 mi WSW 12.7 mph 20.7 mph N/A Rain Light Rain
7:11 PM 69.8 °F 41.0 °F 35% 29.60 in 10.0 mi WSW 20.7 mph 31.1 mph N/A Rain , Thunderstorm Thunderstorms and Rain
7:20 PM 66.2 °F 41.0 °F 40% 29.62 in 10.0 mi SSW 19.6 mph 40.3 mph N/A Rain , Thunderstorm Thunderstorms and Rain
7:22 PM 66.2 °F 41.0 °F 40% 29.62 in 10.0 mi WSW 15.0 mph 40.3 mph N/A Rain , Thunderstorm Thunderstorms and Rain
7:28 PM 66.2 °F 41.0 °F 40% 29.61 in 10.0 mi South 9.2 mph 40.3 mph N/A Rain , Thunderstorm Light Rain
7:34 PM 66.2 °F 41.0 °F 40% 29.61 in 7.0 mi SSW 20.7 mph 36.8 mph N/A Rain , Thunderstorm Light Thunderstorms and Rain
7:41 PM 64.4 °F 44.6 °F 49% 29.62 in 8.0 mi SW 16.1 mph 36.8 mph N/A Rain , Thunderstorm Light Thunderstorms and Rain
7:59 PM 63.1 °F 44.4 °F 50% 29.59 in 10.0 mi SSW 11.5 mph 32.2 mph 0.02 in Rain , Thunderstorm Light Rain
8:09 PM 68.0 °F 39.2 °F 35% 29.59 in 10.0 mi SW 15.0 mph 18.4 mph N/A Thunderstorm Mostly Cloudy
8:58 PM 70.2 °F 35.6 °F 28% 29.57 in 10.0 mi SW 11.5 mph - 0.01 in   Mostly Cloudy
9:58 PM 71.4 °F 35.6 °F 27% 29.55 in 10.0 mi West 11.5 mph - N/A   Mostly Cloudy
10:58 PM 70.9 °F 35.1 °F 27% 29.59 in 10.0 mi West 11.5 mph - N/A   Mostly Cloudy
11:59 PM 71.6 °F 35.8 °F 27% 29.56 in 10.0 mi WSW 6.9 mph - N/A   Mostly Cloudy